Location: Newark
(35.0167°N, 135.7667°E)
Time: 11:39:09
(UTC+00:00)

N. Korean satellite - Pass Details

Date: 24 October 2019
Orbit: 456 x 506 km, 97.2° (Epoch: 12 November)

Event Time Altitude Azimuth Distance (km) Brightness Sun altitude
Rises 20:24:30 0° 19° (NNE) 2,578 10.4 -10.1°
Reaches altitude 10° 20:26:39 10° 27° (NNE) 1,699 9.6 -9.7°
Maximum altitude 20:30:08 41° 98° (E) 737 8.2 -9.0°
Drops below altitude 10° 20:33:37 10° 170° (S) 1,705 9.6 -8.3°
Sets 20:35:47 0° 178° (S) 2,588 10.4 -7.9°
